COSMOS 1275 DEB, 17619

Orbit data source: Space-Track

COSMOS 1275 DEB, 17619 is space debris in LEO originally from a launch on Thu, 04 Jun 1981 UTC launched from the Plesetsk Missile And Space Complex (PKMTR). Debris objects in space refer to the collection of defunct objects orbiting the Earth. Examples of debris include non-operational satellites, rocket bodies, and fragments generated from explosions, collisions, or faulty payload assembly.

Loading next visibility...
Identifier
17619, 1981-053KN
Orbit
LEO
Country
Flag of CISCIS
Related business
Manufacturer
Unknown
Mission
Spacecraft
Bus & Motor
Unknown
Mass
Unknown
Launch date (UTC)
1981-06-04 (44 years ago)
Launch vehicle
Unknown
Launch site
Plesetsk Missile And Space Complex (PKMTR)
Object type
Payload
Rocket body
Debris
Shape & HBR
Unknown shape, 0.1 m
Radar Cross Section
Small (<0.1 m²)

Expand to show TLE details & history
Last TLE update: 18 hours ago

TLE from 18 hours ago
0 COSMOS 1275 DEB
1 17619U 81053KN  25286.27968506  .00008335  00000-0  29069-2 0  9994
2 17619  82.9417 221.1055 0016376 153.7562 358.1045 14.35155422 79717
Epoch: 2025-10-13T06:42Z
TLE epoch observation values (Epoch: 2025-10-13T06:42:44.789Z)
Latitude
27.95617°
Longitude
-85.41355°
Altitude
766.336 km
Speed
7.48 km/s
True Right ascension
02h 29m 25s
True Declination
27° 48' 51"
Sunlit
Object was in full shadow at epoch
Visualization orbit readout
Latitude
Unknown
Longitude
Unknown
Altitude
Unknown
Speed
Unknown
Apparent Right ascension
Unknown
Apparent Declination
Unknown
Sunlit
N/A
Visualization observer readout
Local Sidereal Time
19:14:54
Azimuth
Unknown
Elevation
Unknown
Doppler factor
Unknown
Orbital elements
Apogee altitude
783.324 km
Perigee altitude
759.908 km
Semi-major axis
7,149.753 km
Eccentricity
0.00164
Inclination
82.9417°
RAAN
221.1055°
Arg. of periapsis
153.7562°
True anomaly
358.09828°
Mean anomaly
358.1045°
Eccentric anomaly
358.10139°
Mean motion
3.5901 °/min
Orbital period
100.28 mins
BSTAR
0.0029069
Loading maneuver chart data...
Computing Atmospheric mass density...
Loading historical data...
Loading historical data...
Loading historical data...
Loading historical data...
Loading historical data...
Loading historical data...
Loading historical data...

Documentation

Showing up to 5 results
|